Regional Weather Roundup
Issued by NWS

Home | Current Version | Previous Version | Graphics & Text | Print | Product List | Glossary Off
Versions: 1 2 3 4 5 6 7 8 9 10 11 12 13 14 15 16 17 18 19 20 21 22 23 24 25 26 27 28 29 30 31 32 33 34 35 36 37 38 39 40 41 42 43 44 45 46 47 48 49 50

603
ASUS43 KMKX 290611
RWRWI

WISCONSIN REGIONAL WEATHER ROUNDUP
NATIONAL WEATHER SERVICE MILWAUKEE/SULLIVAN WI
100 AM CDT FRI APR 29 2016

NOTE: "FAIR" INDICATES FEW OR NO CLOUDS BELOW 12,000 FEET WITH NO
SIGNIFICANT WEATHER AND/OR OBSTRUCTIONS TO VISIBILITY.

WIZ001-002-006>008-014>016-023>028-290700-
NORTHWEST WISCONSIN

CITY           SKY/WX    TMP DP  RH WIND       PRES   REMARKS
SUPERIOR ARPT  CLOUDY    30  29  97 CALM      30.16S
6HR MIN TEMP:  30; 6HR MAX TEMP:  38;

ASHLAND        CLOUDY    29  27  92 CALM      30.13S
6HR MIN TEMP:  29; 6HR MAX TEMP:  41;

HAYWARD        PTCLDY    33  27  78 CALM      30.11F
6HR MIN TEMP:  33; 6HR MAX TEMP:  45;

SIREN          PTCLDY    37  26  64 N5        30.13S WCI  33
6HR MIN TEMP:  37; 6HR MAX TEMP:  47;

CUMBERLAND     CLOUDY    37  36  93 W7        30.11S WCI  32
RICE LAKE      CLOUDY    40  36  83 SW3       30.13S
6HR MIN TEMP:  40; 6HR MAX TEMP:  45;

CHETEK         CLOUDY    39  37  91 CALM      30.12S
6HR MIN TEMP:  39; 6HR MAX TEMP:  43;

LADYSMITH      CLOUDY    41  36  83 S5        30.12S
6HR MIN TEMP:  41; 6HR MAX TEMP:  48;

EAU CLAIRE     CLOUDY    40  39  97 CALM      30.11S
6HR MIN TEMP:  39; 6HR MAX TEMP:  41; 6HR PCP:  0.28;

MENOMONIE      CLOUDY    39  38  99 CALM      30.12S
6HR MIN TEMP:  39; 6HR MAX TEMP:  40; 6HR PCP:  0.12;

NEW RICHMOND   MOCLDY    38  38 100 CALM      30.13S FOG
6HR MIN TEMP:  37; 6HR MAX TEMP:  41; 6HR PCP:  0.08;

OSCEOLA        CLOUDY    39  39 100 CALM      30.16S
6HR MIN TEMP:  39; 6HR MAX TEMP:  42; 6HR PCP:  0.08;

$$

WIZ003>005-009-010-017-018-290700-
NORTH CENTRAL WISCONSIN

CITY           SKY/WX    TMP DP  RH WIND       PRES   REMARKS
MANITOWISH WTR MOCLDY    37  26  63 CALM      30.08F
6HR MIN TEMP:  37; 6HR MAX TEMP:  50;

ARBOR VITAE    DRIZZLE   42  36  79 S6        30.10R
6HR MIN TEMP:  42; 6HR MAX TEMP:  56;

WOODRUFF       DRIZZLE   42  36  79 S6        30.10R
6HR MIN TEMP:  42; 6HR MAX TEMP:  56;

RHINELANDER    CLOUDY    37  35  92 CALM      30.10F
6HR MIN TEMP:  37; 6HR MAX TEMP:  51; 6HR PCP:  0.03;

EAGLE RIVER    CLOUDY    39  31  73 S6        30.09S WCI  35
LAND O LAKES   CLOUDY    40  25  56 CALM      30.10S
6HR MIN TEMP:  40; 6HR MAX TEMP:  51;

PHILLIPS       CLOUDY    40  34  77 S9        30.09S WCI  34
6HR MIN TEMP:  40; 6HR MAX TEMP:  49;

TOMAHAWK       CLOUDY    37  35  93 CALM      30.12S FOG
6HR MIN TEMP:  37; 6HR MAX TEMP:  47;

MEDFORD        LGT RAIN  36  36 100 CALM      30.10S
6HR MIN TEMP:  36; 6HR MAX TEMP:  41; 6HR PCP:  0.02;

MERRILL        DRIZZLE   37  36  93 NE5       30.11F WCI  34
$$

WIZ029-030-035-036-043>047-290700-
CENTRAL WISCONSIN

CITY           SKY/WX    TMP DP  RH WIND       PRES   REMARKS
WAUSAU         CLOUDY    39  36  89 CALM      30.09S
6HR MIN TEMP:  39; 6HR MAX TEMP:  42; 6HR PCP:  0.05;

MOSINEE        DRIZZLE   36  36 100 NE6       30.10F WCI  31
MARSHFIELD     CLOUDY    38  35  89 NE10      30.08S WCI  31
6HR MIN TEMP:  38; 6HR MAX TEMP:  41; 6HR PCP: TRACE;

STEVENS POINT  CLOUDY    36  34  95 NE8       30.09F WCI  29
6HR MIN TEMP:  35; 6HR MAX TEMP:  40; 6HR PCP:  0.01;

WAUPACA        CLOUDY    41  36  82 N6        30.08F
6HR MIN TEMP:  40; 6HR MAX TEMP:  44;

WAUTOMA        CLOUDY    38  34  85 MISG      30.08R
6HR MIN TEMP:  38; 6HR MAX TEMP:  42;

WISC RAPIDS    CLOUDY    38  34  85 NE9       30.10S WCI  31
6HR MIN TEMP:  38; 6HR MAX TEMP:  41; 6HR PCP: TRACE;

CAMP DOUGLAS   CLOUDY    38  38 100 NE5       30.08R WCI  35
6HR MIN TEMP:  38; 6HR MAX TEMP:  40; 6HR PCP: TRACE;

$$

WIZ011>013-019>022-031-037>040-048>050-290700-
NORTHEAST WISCONSIN

CITY           SKY/WX    TMP DP  RH WIND       PRES   REMARKS
ANTIGO         CLOUDY    35  35  97 NE3       30.09F
6HR MIN TEMP:  35; 6HR MAX TEMP:  44; 6HR PCP:  0.01;

SHAWANO        RAIN      42  37  81 N8        30.09S
6HR MIN TEMP:  40; 6HR MAX TEMP:  43;

OCONTO         CLOUDY    42  31  64 NE5       30.09S
6HR MIN TEMP:  42; 6HR MAX TEMP:  42;

STURGEON BAY   CLOUDY    41  32  70 S5        30.10F
6HR MIN TEMP:  41; 6HR MAX TEMP:  43;

GREEN BAY      CLOUDY    42  33  70 N8        30.07S
6HR MIN TEMP:  42; 6HR MAX TEMP:  44; 6HR PCP: TRACE;

MANITOWOC      CLOUDY    42  34  73 MISG      30.07S
6HR MIN TEMP:  41; 6HR MAX TEMP:  42;

APPLETON       CLOUDY    37  32  81 N9        30.05S WCI  31
CLINTONVILLE   CLOUDY    39  34  81 N5        30.08S
OSHKOSH        CLOUDY    41  33  73 N7        30.05F
6HR MIN TEMP:  41; 6HR MAX TEMP:  43;

$$

WIZ032>034-041-042-053>061-290700-
SOUTHWEST WISCONSIN

CITY           SKY/WX    TMP DP  RH WIND       PRES   REMARKS
LA CROSSE      CLOUDY    40  36  86 NW3       30.11R
6HR MIN TEMP:  40; 6HR MAX TEMP:  43; 6HR PCP: TRACE;

SPARTA         CLOUDY    38  37  93 CALM      30.10R
6HR MIN TEMP:  38; 6HR MAX TEMP:  40; 6HR PCP:  0.01;

VIROQUA        CLOUDY    38  38 100 NE5       30.07S WCI  34
6HR MIN TEMP:  38; 6HR MAX TEMP:  39; 6HR PCP:  0.01;

BOSCOBEL       LGT RAIN  41  38  89 N5        30.09R
6HR MIN TEMP:  41; 6HR MAX TEMP:  43; 6HR PCP:  0.05;

PRAIRIE DU CHI CLOUDY    42  38  87 CALM      30.08S
6HR MIN TEMP:  41; 6HR MAX TEMP:  42; 6HR PCP:  0.03;

PLATTEVILLE    CLOUDY    40  39  96 N6        30.06R
6HR MIN TEMP:  40; 6HR MAX TEMP:  42;

$$

WIZ056-057-062-063-064-067-068-290700-
SOUTH CENTRAL WISCONSIN

CITY           SKY/WX    TMP DP  RH WIND       PRES   REMARKS
REEDSBURG      DRIZZLE   38  38  99 NE7       30.07R WCI  33
6HR MIN TEMP:  38; 6HR MAX TEMP:  39; 6HR PCP:  0.08;

BARABOO/DELLS  DRIZZLE   38  37  96 NE6       30.07R WCI  34
6HR MIN TEMP:  38; 6HR MAX TEMP:  39; 6HR PCP:  0.04;

LONE ROCK      LGT RAIN  41  38  89 CALM      30.08R
6HR MIN TEMP:  41; 6HR MAX TEMP:  41; 6HR PCP:  0.01;

MINERAL POINT  CLOUDY    41  39  93 N3        30.06R
MADISON        CLOUDY    40  38  93 N5        30.05S
6HR MIN TEMP:  39; 6HR MAX TEMP:  41; 6HR PCP:  0.04;

MIDDLETON      CLOUDY    41  39  95 N6        30.06R
6HR MIN TEMP:  40; 6HR MAX TEMP:  41;

WATERTOWN      CLOUDY    39  39 100 NE5       30.04S
6HR MIN TEMP:  38; 6HR MAX TEMP:  40; 6HR PCP:  0.01;

MONROE         CLOUDY    37  37 100 NE6       30.04R WCI  33
JANESVILLE     CLOUDY    41  41 100 NE3       30.03S
$$

WIZ051-052-058>065-066-070>072-290700-
SOUTHEAST WISCONSIN

CITY           SKY/WX    TMP DP  RH WIND       PRES   REMARKS
MILWAUKEE      DRIZZLE   40  38  93 N8        30.04S FOG     WCI  34
6HR MIN TEMP:  40; 6HR MAX TEMP:  41; 6HR PCP:  0.01;

WAUKESHA       CLOUDY    36  36 100 NE6       30.05S FOG     WCI  31
MILWAUKEE/TIMM CLOUDY    37  36  93 NE5       30.05S FOG     WCI  34
RACINE         LGT RAIN  41  38  89 N9        30.04F
6HR MIN TEMP:  41; 6HR MAX TEMP:  41; 6HR PCP: TRACE;

BURLINGTON     CLOUDY    39  39  99 NE7       30.02S WCI  34
6HR MIN TEMP:  38; 6HR MAX TEMP:  39;

KENOSHA        CLOUDY    41  39  93 NE7       30.03S FOG
6HR MIN TEMP:  41; 6HR MAX TEMP:  41; 6HR PCP:  0.03;

FOND DU LAC    CLOUDY    42  34  73 NE9       30.05F
6HR MIN TEMP:  40; 6HR MAX TEMP:  42; 6HR PCP: TRACE;

SHEBOYGAN      CLOUDY    40  34  79 NE7       30.05S
6HR MIN TEMP:  40; 6HR MAX TEMP:  41;

WEST BEND      CLOUDY    39  34  81 CALM      30.05S
JUNEAU         CLOUDY    39  37  94 CALM      30.06S
6HR MIN TEMP:  38; 6HR MAX TEMP:  40;

$$

LSZ147-162-290700-
LAKE SUPERIOR

STATION/POSITION TIME  TEMP    WIND        PRES    WAVE
                       AIR SEA DIR/SP/G            HT/PER
                 (UTC) (F)     (DEG/KT/KT) (MB)    (FT/S)
W MID LAKE BUOY  0550   37 36   40/  6/  8 1021.7R   2/ 5
DEVILS ISLAND    0500   37      20/  7/  8 1021.6S
SAXON HARBOR     0540   30     200/  2/  4 1019.6S
$$

LMZ867-665-643>646-290700-
LAKE MICHIGAN

STATION/POSITION TIME  TEMP    WIND        PRES    WAVE
                       AIR SEA DIR/SP/G            HT/PER
                 (UTC) (F)     (DEG/KT/KT) (MB)    (FT/S)
CHAMBERS ISLAND  0500   41      30/C1F1C2F2C3F3C4F4C5F5C6F6C7F7C8M1C9M2Ca!



USA.gov is the U.S. government's official web portal to all federal, state and local government web resources and services.